Location: Nebula Knoll Observatory
(43.6666°N, 71.0000°W)
Time: 00:06:58

Cosmos 1782 - Visible Passes

Search period start: 26 November 2015 00:00
Search period end: 06 December 2015 00:00
Orbit: 541 x 558 km, 82.5° (Epoch: 25 November)

Date Brightness Start Highest point End Pass type
(mag) Time Alt. Az. Time Alt. Az. Time Alt. Az.
26 Nov 3.0 16:46:29 10° S 16:50:30 79° W 16:54:31 10° N visible
27 Nov 3.1 16:42:05 10° SSW 16:46:05 72° W 16:50:05 10° N visible
28 Nov 3.3 16:37:41 10° SSW 16:41:40 65° W 16:45:39 10° N visible
